TimeCST,TemperatureF,Dew PointF,Humidity,Sea Level PressureIn,VisibilityMPH,Wind Direction,Wind SpeedMPH,Gust SpeedMPH,PrecipitationIn,Events,Conditions,WindDirDegrees,DateUTC
12:15 AM,9.3,4.1,79,30.22,10.0,North,6.9,-,N/A,,Clear,350,2013-03-02 06:15:00
12:35 AM,7.3,3.0,82,30.22,10.0,North,5.8,-,N/A,,Clear,350,2013-03-02 06:35:00
12:55 AM,3.9,0.1,84,30.22,10.0,North,4.6,-,N/A,,Clear,350,2013-03-02 06:55:00
1:15 AM,5.7,2.5,86,30.22,10.0,NNW,5.8,-,N/A,,Clear,340,2013-03-02 07:15:00
1:35 AM,3.9,0.3,85,30.22,10.0,North,3.5,-,N/A,,Clear,10,2013-03-02 07:35:00
1:55 AM,3.7,0.9,88,30.21,10.0,Calm,Calm,-,N/A,,Clear,0,2013-03-02 07:55:00
2:15 AM,3.2,-0.4,85,30.20,10.0,Calm,Calm,-,N/A,,Clear,0,2013-03-02 08:15:00
2:35 AM,3.7,-0.2,84,30.20,10.0,North,9.2,-,N/A,,Clear,360,2013-03-02 08:35:00
2:55 AM,4.3,0.1,83,30.20,10.0,North,5.8,-,N/A,,Clear,350,2013-03-02 08:55:00
3:15 AM,3.9,0.1,84,30.20,10.0,North,8.1,-,N/A,,Clear,360,2013-03-02 09:15:00
3:35 AM,7.5,2.8,81,30.19,10.0,North,9.2,-,N/A,,Clear,10,2013-03-02 09:35:00
3:55 AM,6.1,2.1,84,30.19,10.0,North,9.2,-,N/A,,Clear,10,2013-03-02 09:55:00
4:15 AM,4.6,0.5,83,30.20,10.0,North,9.2,-,N/A,,Clear,10,2013-03-02 10:15:00
4:35 AM,3.6,-0.2,84,30.20,10.0,North,9.2,-,N/A,,Clear,360,2013-03-02 10:35:00
4:55 AM,6.1,2.1,84,30.20,10.0,NNW,4.6,-,N/A,,Clear,340,2013-03-02 10:55:00
5:15 AM,6.1,2.7,86,30.20,10.0,NNW,4.6,-,N/A,,Clear,330,2013-03-02 11:15:00
5:35 AM,5.7,2.5,86,30.20,10.0,NNW,4.6,-,N/A,,Clear,330,2013-03-02 11:35:00
6:15 AM,-0.4,-2.9,89,30.20,10.0,NNW,3.5,-,N/A,,Clear,340,2013-03-02 12:15:00
6:35 AM,0.1,-1.8,91,30.20,10.0,NNW,4.6,-,N/A,,Clear,340,2013-03-02 12:35:00
6:55 AM,0.5,-2.7,86,30.20,10.0,NNW,3.5,-,N/A,,Clear,330,2013-03-02 12:55:00
7:15 AM,-1.1,-3.8,88,30.20,10.0,NW,5.8,-,N/A,,Clear,320,2013-03-02 13:15:00
7:35 AM,1.9,-0.9,88,30.20,10.0,NNW,4.6,-,N/A,,Clear,340,2013-03-02 13:35:00
7:55 AM,4.1,1.0,87,30.20,10.0,North,8.1,-,N/A,,Clear,360,2013-03-02 13:55:00
8:15 AM,5.4,2.1,86,30.20,10.0,North,9.2,-,N/A,,Clear,10,2013-03-02 14:15:00
8:35 AM,8.1,4.1,84,30.20,10.0,North,8.1,-,N/A,,Clear,360,2013-03-02 14:35:00
8:55 AM,10.9,5.4,78,30.20,10.0,North,9.2,-,N/A,,Clear,360,2013-03-02 14:55:00
9:15 AM,13.3,6.8,75,30.20,10.0,North,9.2,-,N/A,,Clear,10,2013-03-02 15:15:00
9:35 AM,14.2,7.2,74,30.19,10.0,NNE,8.1,-,N/A,,Clear,20,2013-03-02 15:35:00
9:55 AM,14.7,7.5,73,30.19,10.0,North,9.2,-,N/A,,Clear,360,2013-03-02 15:55:00
10:15 AM,15.8,7.7,70,30.19,10.0,North,8.1,-,N/A,,Clear,10,2013-03-02 16:15:00
10:35 AM,16.9,7.2,66,30.18,10.0,North,6.9,-,N/A,,Clear,350,2013-03-02 16:35:00
10:55 AM,18.0,6.8,62,30.18,10.0,North,8.1,-,N/A,,Clear,360,2013-03-02 16:55:00
11:15 AM,19.0,7.2,60,30.18,10.0,North,8.1,-,N/A,,Clear,360,2013-03-02 17:15:00
11:35 AM,19.9,7.0,57,30.18,10.0,North,6.9,-,N/A,,Clear,350,2013-03-02 17:35:00
11:55 AM,20.8,6.8,55,30.17,10.0,North,8.1,-,N/A,,Clear,360,2013-03-02 17:55:00
12:15 PM,21.7,6.8,53,30.16,10.0,North,8.1,-,N/A,,Clear,360,2013-03-02 18:15:00
12:35 PM,22.8,6.1,49,30.15,10.0,NNE,6.9,-,N/A,,Clear,20,2013-03-02 18:35:00
12:55 PM,23.7,6.8,49,30.15,10.0,Calm,Calm,-,N/A,,Clear,0,2013-03-02 18:55:00
1:15 PM,23.9,5.9,46,30.14,10.0,NNW,4.6,-,N/A,,Clear,330,2013-03-02 19:15:00
1:35 PM,24.8,5.7,44,30.14,10.0,Calm,Calm,-,N/A,,Clear,0,2013-03-02 19:35:00
1:55 PM,25.2,5.0,42,30.13,10.0,NNW,5.8,-,N/A,,Clear,340,2013-03-02 19:55:00
2:15 PM,25.5,6.4,44,30.13,10.0,NNW,4.6,-,N/A,,Clear,340,2013-03-02 20:15:00
2:35 PM,25.7,5.5,42,30.13,10.0,NNW,6.9,-,N/A,,Clear,340,2013-03-02 20:35:00
2:55 PM,25.7,6.1,43,30.12,10.0,North,5.8,-,N/A,,Clear,360,2013-03-02 20:55:00
3:15 PM,25.9,5.4,42,30.11,10.0,NNW,8.1,-,N/A,,Clear,340,2013-03-02 21:15:00
3:35 PM,25.7,4.8,41,30.11,10.0,NNW,8.1,-,N/A,,Clear,340,2013-03-02 21:35:00
3:55 PM,25.7,3.4,38,30.11,10.0,NNW,6.9,-,N/A,,Clear,330,2013-03-02 21:55:00
4:15 PM,25.5,3.7,39,30.11,10.0,NNW,8.1,-,N/A,,Clear,340,2013-03-02 22:15:00
4:35 PM,24.6,3.7,41,30.11,10.0,NNW,8.1,-,N/A,,Clear,330,2013-03-02 22:35:00
4:55 PM,24.4,3.2,40,30.11,10.0,NNW,6.9,-,N/A,,Clear,340,2013-03-02 22:55:00
5:15 PM,23.2,3.0,42,30.12,10.0,NNW,8.1,-,N/A,,Clear,340,2013-03-02 23:15:00
5:35 PM,21.7,3.0,45,30.13,10.0,NNW,8.1,-,N/A,,Clear,330,2013-03-02 23:35:00
5:55 PM,21.0,2.3,44,30.13,10.0,NNW,6.9,-,N/A,,Clear,340,2013-03-02 23:55:00
6:15 PM,20.5,2.1,45,30.13,10.0,North,6.9,-,N/A,,Clear,350,2013-03-03 00:15:00
6:35 PM,16.3,1.9,53,30.13,10.0,North,6.9,-,N/A,,Clear,350,2013-03-03 00:35:00
6:55 PM,14.9,1.8,56,30.13,10.0,North,6.9,-,N/A,,Clear,360,2013-03-03 00:55:00
7:15 PM,17.2,1.6,50,30.12,10.0,North,5.8,-,N/A,,Clear,350,2013-03-03 01:15:00
7:35 PM,14.7,0.3,53,30.12,10.0,North,4.6,-,N/A,,Clear,10,2013-03-03 01:35:00
7:55 PM,8.6,-0.8,66,30.12,10.0,Calm,Calm,-,N/A,,Clear,0,2013-03-03 01:55:00
8:15 PM,9.7,0.3,66,30.12,10.0,Calm,Calm,-,N/A,,Clear,0,2013-03-03 02:15:00
8:35 PM,10.6,0.3,63,30.12,10.0,Calm,Calm,-,N/A,,Clear,0,2013-03-03 02:35:00
8:55 PM,7.2,-0.8,70,30.13,10.0,NNW,3.5,-,N/A,,Clear,330,2013-03-03 02:55:00
9:15 PM,10.2,0.7,65,30.13,10.0,Calm,Calm,-,N/A,,Clear,0,2013-03-03 03:15:00
9:35 PM,9.0,0.5,69,30.13,10.0,Calm,Calm,-,N/A,,Clear,0,2013-03-03 03:35:00
9:55 PM,7.2,-0.8,70,30.12,10.0,NE,3.5,-,N/A,,Clear,50,2013-03-03 03:55:00
10:15 PM,8.4,0.3,70,30.11,10.0,Calm,Calm,-,N/A,,Clear,0,2013-03-03 04:15:00
10:35 PM,9.5,1.8,71,30.11,10.0,Calm,Calm,-,N/A,,Mostly Cloudy,0,2013-03-03 04:35:00
10:55 PM,8.6,1.4,73,30.10,10.0,NNE,3.5,-,N/A,,Scattered Clouds,20,2013-03-03 04:55:00
11:15 PM,8.1,2.1,77,30.10,10.0,North,3.5,-,N/A,,Clear,360,2013-03-03 05:15:00
11:35 PM,6.1,0.1,77,30.10,10.0,North,4.6,-,N/A,,Clear,360,2013-03-03 05:35:00
11:55 PM,5.9,-0.2,76,30.10,10.0,North,4.6,-,N/A,,Clear,10,2013-03-03 05:55:00